Year,Month,Day,Hour,Minute,Value (Times are PST for temperature in C)
2016,08,13,00,00,14.90
2016,08,13,00,01,14.80
2016,08,13,00,02,14.80
2016,08,13,00,03,14.90
2016,08,13,00,04,15.00
2016,08,13,00,05,15.00
2016,08,13,00,06,14.90
2016,08,13,00,07,14.90
2016,08,13,00,08,15.00
2016,08,13,00,09,15.10
2016,08,13,00,10,15.20
2016,08,13,00,11,15.30
2016,08,13,00,12,15.30
2016,08,13,00,13,15.50
2016,08,13,00,14,15.60
2016,08,13,00,15,15.60
2016,08,13,00,16,15.80
2016,08,13,00,17,15.90
2016,08,13,00,18,16.00
2016,08,13,00,19,16.00
2016,08,13,00,20,16.10
2016,08,13,00,21,16.20
2016,08,13,00,22,16.30
2016,08,13,00,23,16.40
2016,08,13,00,24,16.50
2016,08,13,00,25,16.60
2016,08,13,00,26,16.60
2016,08,13,00,27,16.70
2016,08,13,00,28,16.80
2016,08,13,00,29,16.80
2016,08,13,00,30,16.90
2016,08,13,00,31,16.90
2016,08,13,00,32,16.90
2016,08,13,00,33,16.90
2016,08,13,00,34,16.90
2016,08,13,00,35,16.90
2016,08,13,00,36,16.90
2016,08,13,00,37,16.90
2016,08,13,00,38,16.90
2016,08,13,00,39,16.90
2016,08,13,00,40,17.00
2016,08,13,00,41,17.10
2016,08,13,00,42,17.10
2016,08,13,00,43,17.10
2016,08,13,00,44,17.10
2016,08,13,00,45,17.10
2016,08,13,00,46,17.20
2016,08,13,00,47,17.30
2016,08,13,00,48,17.30
2016,08,13,00,49,17.30
2016,08,13,00,50,17.30
2016,08,13,00,51,17.30
2016,08,13,00,52,17.20
2016,08,13,00,53,17.20
2016,08,13,00,54,17.00
2016,08,13,00,55,16.80
2016,08,13,00,56,16.70
2016,08,13,00,57,16.50
2016,08,13,00,58,16.40
2016,08,13,00,59,16.40
2016,08,13,01,00,16.40
2016,08,13,01,01,16.60
2016,08,13,01,02,16.80
2016,08,13,01,03,17.10
2016,08,13,01,04,17.20
2016,08,13,01,05,17.20
2016,08,13,01,06,17.20
2016,08,13,01,07,17.10
2016,08,13,01,08,17.00
2016,08,13,01,09,16.80
2016,08,13,01,10,16.70
2016,08,13,01,11,16.60
2016,08,13,01,12,16.60
2016,08,13,01,13,16.90
2016,08,13,01,14,17.20
2016,08,13,01,15,17.50
2016,08,13,01,16,17.80
2016,08,13,01,17,18.00
2016,08,13,01,18,18.30
2016,08,13,01,19,18.50
2016,08,13,01,20,18.60
2016,08,13,01,21,18.80
2016,08,13,01,22,18.90
2016,08,13,01,23,19.00
2016,08,13,01,24,19.10
2016,08,13,01,25,19.10
2016,08,13,01,26,19.20
2016,08,13,01,27,19.20
2016,08,13,01,28,19.20
2016,08,13,01,29,19.20
2016,08,13,01,30,19.30
2016,08,13,01,31,19.40
2016,08,13,01,32,19.50
2016,08,13,01,33,19.70
2016,08,13,01,34,19.80
2016,08,13,01,35,19.90
2016,08,13,01,36,19.90
2016,08,13,01,37,20.00
2016,08,13,01,38,20.00
2016,08,13,01,39,20.10
2016,08,13,01,40,20.10
2016,08,13,01,41,20.10
2016,08,13,01,42,20.10
2016,08,13,01,43,20.10
2016,08,13,01,44,20.10
2016,08,13,01,45,20.10
2016,08,13,01,46,20.20
2016,08,13,01,47,20.20
2016,08,13,01,48,20.20
2016,08,13,01,49,20.20
2016,08,13,01,50,20.20
2016,08,13,01,51,20.20
2016,08,13,01,52,20.20
2016,08,13,01,53,20.10
2016,08,13,01,54,20.10
2016,08,13,01,55,20.00
2016,08,13,01,56,20.00
2016,08,13,01,57,20.00
2016,08,13,01,58,20.10
2016,08,13,01,59,20.10
2016,08,13,02,00,20.00
2016,08,13,02,01,20.00
2016,08,13,02,02,20.00
2016,08,13,02,03,19.90
2016,08,13,02,04,19.90
2016,08,13,02,05,19.90
2016,08,13,02,06,19.80
2016,08,13,02,07,19.80
2016,08,13,02,08,19.80
2016,08,13,02,09,19.80
2016,08,13,02,10,19.80
2016,08,13,02,11,19.80
2016,08,13,02,12,19.70
2016,08,13,02,13,19.70
2016,08,13,02,14,19.70
2016,08,13,02,15,19.70
2016,08,13,02,16,19.60
2016,08,13,02,17,19.60
2016,08,13,02,18,19.60
2016,08,13,02,19,19.50
2016,08,13,02,20,19.50
2016,08,13,02,21,19.40
2016,08,13,02,22,19.40
2016,08,13,02,23,19.40
2016,08,13,02,24,19.40
2016,08,13,02,25,19.40
2016,08,13,02,26,19.30
2016,08,13,02,27,19.10
2016,08,13,02,28,18.90
2016,08,13,02,29,18.60
2016,08,13,02,30,18.30
2016,08,13,02,31,18.00
2016,08,13,02,32,17.70
2016,08,13,02,33,17.40
2016,08,13,02,34,17.20
2016,08,13,02,35,17.00
2016,08,13,02,36,16.80
2016,08,13,02,37,16.70
2016,08,13,02,38,16.70
2016,08,13,02,39,16.70
2016,08,13,02,40,16.70
2016,08,13,02,41,16.70
2016,08,13,02,42,16.70
2016,08,13,02,43,16.70
2016,08,13,02,44,16.70
2016,08,13,02,45,16.70
2016,08,13,02,46,16.60
2016,08,13,02,47,16.50
2016,08,13,02,48,16.30
2016,08,13,02,49,16.20
2016,08,13,02,50,16.10
2016,08,13,02,51,16.00
2016,08,13,02,52,15.90
2016,08,13,02,53,15.80
2016,08,13,02,54,15.80
2016,08,13,02,55,15.80
2016,08,13,02,56,15.80
2016,08,13,02,57,15.90
2016,08,13,02,58,15.90
2016,08,13,02,59,16.00
2016,08,13,03,00,16.10
2016,08,13,03,01,16.20
2016,08,13,03,02,16.20
2016,08,13,03,03,16.30
2016,08,13,03,04,16.40
2016,08,13,03,05,16.50
2016,08,13,03,06,16.60
2016,08,13,03,07,16.70
2016,08,13,03,08,16.90
2016,08,13,03,09,17.00
2016,08,13,03,10,17.20
2016,08,13,03,11,17.30
2016,08,13,03,12,17.40
2016,08,13,03,13,17.50
2016,08,13,03,14,17.60
2016,08,13,03,15,17.60
2016,08,13,03,16,17.50
2016,08,13,03,17,17.40
2016,08,13,03,18,17.10
2016,08,13,03,19,16.90
2016,08,13,03,20,16.90
2016,08,13,03,21,16.90
2016,08,13,03,22,16.90
2016,08,13,03,23,16.80
2016,08,13,03,24,16.70
2016,08,13,03,25,16.70
2016,08,13,03,26,16.70
2016,08,13,03,27,16.70
2016,08,13,03,28,16.90
2016,08,13,03,29,17.00
2016,08,13,03,30,17.10
2016,08,13,03,31,17.20
2016,08,13,03,32,17.30
2016,08,13,03,33,17.40
2016,08,13,03,34,17.50
2016,08,13,03,35,17.50
2016,08,13,03,36,17.60
2016,08,13,03,37,17.50
2016,08,13,03,38,17.50
2016,08,13,03,39,17.40
2016,08,13,03,40,17.40
2016,08,13,03,41,17.40
2016,08,13,03,42,17.40
2016,08,13,03,43,17.40
2016,08,13,03,44,17.40
2016,08,13,03,45,17.40
2016,08,13,03,46,17.40
2016,08,13,03,47,17.40
2016,08,13,03,48,17.40
2016,08,13,03,49,17.40
2016,08,13,03,50,17.40
2016,08,13,03,51,17.30
2016,08,13,03,52,17.30
2016,08,13,03,53,17.30
2016,08,13,03,54,17.30
2016,08,13,03,55,17.30
2016,08,13,03,56,17.20
2016,08,13,03,57,17.20
2016,08,13,03,58,17.20
2016,08,13,03,59,17.20
2016,08,13,04,00,17.20
2016,08,13,04,01,17.10
2016,08,13,04,02,17.10
2016,08,13,04,03,17.10
2016,08,13,04,04,17.10
2016,08,13,04,05,17.10
2016,08,13,04,06,17.10
2016,08,13,04,07,17.10
2016,08,13,04,08,17.10
2016,08,13,04,09,17.10
2016,08,13,04,10,17.10
2016,08,13,04,11,17.20
2016,08,13,04,12,17.20
2016,08,13,04,13,17.20
2016,08,13,04,14,17.30
2016,08,13,04,15,17.30
2016,08,13,04,16,17.30
2016,08,13,04,17,17.30
2016,08,13,04,18,17.30
2016,08,13,04,19,17.30
2016,08,13,04,20,17.30
2016,08,13,04,21,17.20
2016,08,13,04,22,17.20
2016,08,13,04,23,17.20
2016,08,13,04,24,17.20
2016,08,13,04,25,17.20
2016,08,13,04,26,17.10
2016,08,13,04,27,17.10
2016,08,13,04,28,17.10
2016,08,13,04,29,17.00
2016,08,13,04,30,17.00
2016,08,13,04,31,17.00
2016,08,13,04,32,16.90
2016,08,13,04,33,16.90
2016,08,13,04,34,16.90
2016,08,13,04,35,16.90
2016,08,13,04,36,16.90
2016,08,13,04,37,16.80
2016,08,13,04,38,16.80
2016,08,13,04,39,16.80
2016,08,13,04,40,16.70
2016,08,13,04,41,16.70
2016,08,13,04,42,16.60
2016,08,13,04,43,16.60
2016,08,13,04,44,16.60
2016,08,13,04,45,16.60
2016,08,13,04,46,16.60
2016,08,13,04,47,16.60
2016,08,13,04,48,16.60
2016,08,13,04,49,16.60
2016,08,13,04,50,16.60
2016,08,13,04,51,16.60
2016,08,13,04,52,16.60
2016,08,13,04,53,16.60
2016,08,13,04,54,16.60
2016,08,13,04,55,16.60
2016,08,13,04,56,16.60
2016,08,13,04,57,16.60
2016,08,13,04,58,16.60
2016,08,13,04,59,16.60
2016,08,13,05,00,16.60
2016,08,13,05,01,16.60
2016,08,13,05,02,16.60
2016,08,13,05,03,16.60
2016,08,13,05,04,16.60
2016,08,13,05,05,16.50
2016,08,13,05,06,16.50
2016,08,13,05,07,16.50
2016,08,13,05,08,16.50
2016,08,13,05,09,16.50
2016,08,13,05,10,16.50
2016,08,13,05,11,16.40
2016,08,13,05,12,16.40
2016,08,13,05,13,16.40
2016,08,13,05,14,16.40
2016,08,13,05,15,16.30
2016,08,13,05,16,16.30
2016,08,13,05,17,16.30
2016,08,13,05,18,16.20
2016,08,13,05,19,16.20
2016,08,13,05,20,16.10
2016,08,13,05,21,16.10
2016,08,13,05,22,16.00
2016,08,13,05,23,16.00
2016,08,13,05,24,15.90
2016,08,13,05,25,15.90
2016,08,13,05,26,15.80
2016,08,13,05,27,15.80
2016,08,13,05,28,15.70
2016,08,13,05,29,15.70
2016,08,13,05,30,15.60
2016,08,13,05,31,15.60
2016,08,13,05,32,15.60
2016,08,13,05,33,15.50
2016,08,13,05,34,15.50
2016,08,13,05,35,15.40
2016,08,13,05,36,15.40
2016,08,13,05,37,15.40
2016,08,13,05,38,15.40
2016,08,13,05,39,15.30
2016,08,13,05,40,15.30
2016,08,13,05,41,15.30
2016,08,13,05,42,15.30
2016,08,13,05,43,15.20
2016,08,13,05,44,15.20
2016,08,13,05,45,15.30
2016,08,13,05,46,15.30
2016,08,13,05,47,15.30
2016,08,13,05,48,15.30
2016,08,13,05,49,15.40
2016,08,13,05,50,15.40
2016,08,13,05,51,15.50
2016,08,13,05,52,15.60
2016,08,13,05,53,15.60
2016,08,13,05,54,15.70
2016,08,13,05,55,15.70
2016,08,13,05,56,15.80
2016,08,13,05,57,15.80
2016,08,13,05,58,15.80
2016,08,13,05,59,15.90
2016,08,13,06,00,15.90
2016,08,13,06,01,16.00
2016,08,13,06,02,16.00
2016,08,13,06,03,16.10
2016,08,13,06,04,16.10
2016,08,13,06,05,16.20
2016,08,13,06,06,16.20
2016,08,13,06,07,16.20
2016,08,13,06,08,16.30
2016,08,13,06,09,16.30
2016,08,13,06,10,16.30
2016,08,13,06,11,16.30
2016,08,13,06,12,16.30
2016,08,13,06,13,16.30
2016,08,13,06,14,16.30
2016,08,13,06,15,16.30
2016,08,13,06,16,16.30
2016,08,13,06,17,16.40
2016,08,13,06,18,16.40
2016,08,13,06,19,16.40
2016,08,13,06,20,16.50
2016,08,13,06,21,16.50
2016,08,13,06,22,16.60
2016,08,13,06,23,16.60
2016,08,13,06,24,16.70
2016,08,13,06,25,16.90
2016,08,13,06,26,17.10
2016,08,13,06,27,17.30
2016,08,13,06,28,17.50
2016,08,13,06,29,17.60
2016,08,13,06,30,17.80
2016,08,13,06,31,17.90
2016,08,13,06,32,18.00
2016,08,13,06,33,18.10
2016,08,13,06,34,18.30
2016,08,13,06,35,18.40
2016,08,13,06,36,18.40
2016,08,13,06,37,18.40
2016,08,13,06,38,18.30
2016,08,13,06,39,18.20
2016,08,13,06,40,18.20
2016,08,13,06,41,18.20
2016,08,13,06,42,18.20
2016,08,13,06,43,18.20
2016,08,13,06,44,18.20
2016,08,13,06,45,18.20
2016,08,13,06,46,18.20
2016,08,13,06,47,18.20
2016,08,13,06,48,18.20
2016,08,13,06,49,18.10
2016,08,13,06,50,18.10
2016,08,13,06,51,18.00
2016,08,13,06,52,18.00
2016,08,13,06,53,17.90
2016,08,13,06,54,17.90
2016,08,13,06,55,17.90
2016,08,13,06,56,17.80
2016,08,13,06,57,17.80
2016,08,13,06,58,17.80
2016,08,13,06,59,17.70
2016,08,13,07,00,17.70
2016,08,13,07,01,17.60
2016,08,13,07,02,17.60
2016,08,13,07,03,17.60
2016,08,13,07,04,17.60
2016,08,13,07,05,17.60
2016,08,13,07,06,17.60
2016,08,13,07,07,17.60
2016,08,13,07,08,17.70
2016,08,13,07,09,17.70
2016,08,13,07,10,17.70
2016,08,13,07,11,17.70
2016,08,13,07,12,17.70
2016,08,13,07,13,17.70
2016,08,13,07,14,17.70
2016,08,13,07,15,17.70
2016,08,13,07,16,17.70
2016,08,13,07,17,17.70
2016,08,13,07,18,17.70
2016,08,13,07,19,17.70
2016,08,13,07,20,17.70
2016,08,13,07,21,17.60
2016,08,13,07,22,17.60
2016,08,13,07,23,17.60
2016,08,13,07,24,17.60
2016,08,13,07,25,17.70
2016,08,13,07,26,17.70
2016,08,13,07,27,17.70
2016,08,13,07,28,17.70
2016,08,13,07,29,17.70
2016,08,13,07,30,17.70
2016,08,13,07,31,17.70
2016,08,13,07,32,17.70
2016,08,13,07,33,17.70
2016,08,13,07,34,17.70
2016,08,13,07,35,17.70
2016,08,13,07,36,17.60
2016,08,13,07,37,17.60
2016,08,13,07,38,17.60
2016,08,13,07,39,17.60
2016,08,13,07,40,17.60
2016,08,13,07,41,17.70
2016,08,13,07,42,17.70
2016,08,13,07,43,17.70
2016,08,13,07,44,17.70
2016,08,13,07,45,17.70
2016,08,13,07,46,17.70
2016,08,13,07,47,17.60
2016,08,13,07,48,17.60
2016,08,13,07,49,17.60
2016,08,13,07,50,17.60
2016,08,13,07,51,17.50
2016,08,13,07,52,17.40
2016,08,13,07,53,17.40
2016,08,13,07,54,17.40
2016,08,13,07,55,17.40
2016,08,13,07,56,17.40
2016,08,13,07,57,17.40
2016,08,13,07,58,17.40
2016,08,13,07,59,17.40
2016,08,13,08,00,17.40
2016,08,13,08,01,17.40
2016,08,13,08,02,17.40
2016,08,13,08,03,17.40
2016,08,13,08,04,17.40
2016,08,13,08,05,17.30
2016,08,13,08,06,17.30
2016,08,13,08,07,17.30
2016,08,13,08,08,17.30
2016,08,13,08,09,17.30
2016,08,13,08,10,17.20
2016,08,13,08,11,17.20
2016,08,13,08,12,17.10
2016,08,13,08,13,17.10
2016,08,13,08,14,17.10
2016,08,13,08,15,17.10
2016,08,13,08,16,17.00
2016,08,13,08,17,17.00
2016,08,13,08,18,17.00
2016,08,13,08,19,17.00
2016,08,13,08,20,17.00
2016,08,13,08,21,16.90
2016,08,13,08,22,16.90
2016,08,13,08,23,16.90
2016,08,13,08,24,16.90
2016,08,13,08,25,16.90
2016,08,13,08,26,16.90
2016,08,13,08,27,16.90
2016,08,13,08,28,16.90
2016,08,13,08,29,16.90
2016,08,13,08,30,16.90
2016,08,13,08,31,16.90
2016,08,13,08,32,16.90
2016,08,13,08,33,16.90
2016,08,13,08,34,16.90
2016,08,13,08,35,17.00
2016,08,13,08,36,17.00
2016,08,13,08,37,17.00
2016,08,13,08,38,17.10
2016,08,13,08,39,17.10
2016,08,13,08,40,17.10
2016,08,13,08,41,17.10
2016,08,13,08,42,17.00
2016,08,13,08,43,17.00
2016,08,13,08,44,17.00
2016,08,13,08,45,17.00
2016,08,13,08,46,16.90
2016,08,13,08,47,16.90
2016,08,13,08,48,16.90
2016,08,13,08,49,16.90
2016,08,13,08,50,16.90
2016,08,13,08,51,16.90
2016,08,13,08,52,16.90
2016,08,13,08,53,16.90
2016,08,13,08,54,16.90
2016,08,13,08,55,16.90
2016,08,13,08,56,16.90
2016,08,13,08,57,16.80
2016,08,13,08,58,16.80
2016,08,13,08,59,16.80
2016,08,13,09,00,16.80
2016,08,13,09,01,16.80
2016,08,13,09,02,16.80
2016,08,13,09,03,16.80
2016,08,13,09,04,16.90
2016,08,13,09,05,17.00
2016,08,13,09,06,17.00
2016,08,13,10,06,18.40
2016,08,13,10,07,18.40
2016,08,13,10,08,18.40
2016,08,13,10,09,18.40
2016,08,13,10,10,18.40
2016,08,13,10,11,18.50
2016,08,13,10,12,18.50
2016,08,13,10,13,18.50
2016,08,13,10,14,18.50
2016,08,13,10,15,18.50
2016,08,13,10,16,18.50
2016,08,13,10,17,18.50
2016,08,13,10,18,18.50
2016,08,13,10,19,18.50
2016,08,13,10,20,18.50
2016,08,13,10,21,18.50
2016,08,13,10,22,18.50
2016,08,13,10,23,18.50
2016,08,13,10,24,18.50
2016,08,13,10,25,18.50
2016,08,13,10,26,18.50
2016,08,13,10,27,18.50
2016,08,13,10,28,18.60
2016,08,13,10,29,18.60
2016,08,13,10,30,18.60
2016,08,13,10,31,18.60
2016,08,13,10,32,18.60
2016,08,13,10,33,18.60
2016,08,13,10,34,18.70
2016,08,13,10,35,18.70
2016,08,13,10,36,18.70
2016,08,13,10,37,18.80
2016,08,13,10,38,18.80
2016,08,13,10,39,18.80
2016,08,13,10,40,18.80
2016,08,13,10,41,18.80
2016,08,13,10,42,18.80
2016,08,13,10,43,18.90
2016,08,13,10,44,18.90
2016,08,13,10,45,18.90
2016,08,13,10,46,18.90
2016,08,13,10,47,18.90
2016,08,13,10,48,18.90
2016,08,13,10,49,18.90
2016,08,13,10,50,19.00
2016,08,13,10,51,19.00
2016,08,13,10,52,18.90
2016,08,13,10,53,18.90
2016,08,13,10,54,18.90
2016,08,13,10,55,18.90
2016,08,13,10,56,18.90
2016,08,13,10,57,18.80
2016,08,13,10,58,18.70
2016,08,13,10,59,18.70
2016,08,13,11,00,18.60
2016,08,13,11,01,18.60
2016,08,13,11,02,18.60
2016,08,13,11,03,18.50
2016,08,13,11,04,18.30
2016,08,13,11,05,18.10
2016,08,13,11,06,17.90
2016,08,13,11,07,17.80
2016,08,13,11,08,17.60
2016,08,13,11,09,17.50
2016,08,13,11,10,17.40
2016,08,13,11,11,17.20
2016,08,13,11,12,17.00
2016,08,13,11,13,16.70
2016,08,13,11,14,16.50
2016,08,13,11,15,16.30
2016,08,13,11,16,16.10
2016,08,13,11,17,15.90
2016,08,13,11,18,15.70
2016,08,13,11,19,15.60
2016,08,13,11,20,15.50
2016,08,13,11,21,15.40
2016,08,13,11,22,15.30
2016,08,13,11,23,15.20
2016,08,13,11,24,15.20
2016,08,13,11,25,15.20
2016,08,13,11,26,15.10
2016,08,13,11,27,15.10
2016,08,13,11,28,15.10
2016,08,13,11,29,15.10
2016,08,13,11,30,15.00
2016,08,13,11,31,15.00
2016,08,13,11,32,15.00
2016,08,13,11,33,15.00
2016,08,13,11,34,15.00
2016,08,13,11,35,15.00
2016,08,13,11,36,15.00
2016,08,13,11,37,15.00
2016,08,13,11,38,15.00
2016,08,13,11,39,15.00
2016,08,13,11,40,15.00
2016,08,13,11,41,15.00
2016,08,13,11,42,15.00
2016,08,13,11,43,15.00
2016,08,13,11,44,15.00
2016,08,13,11,45,15.00
2016,08,13,11,46,15.00
2016,08,13,11,47,15.00
2016,08,13,11,48,15.00
2016,08,13,11,49,15.10
2016,08,13,11,50,15.10
2016,08,13,11,51,15.20
2016,08,13,11,52,15.20
2016,08,13,11,53,15.20
2016,08,13,11,54,15.20
2016,08,13,11,55,15.30
2016,08,13,11,56,15.40
2016,08,13,11,57,15.50
2016,08,13,11,58,15.60
2016,08,13,11,59,15.60
2016,08,13,12,00,15.70
2016,08,13,12,01,15.70
2016,08,13,12,02,15.70
2016,08,13,12,03,15.70
2016,08,13,12,04,15.80
2016,08,13,12,05,15.80
2016,08,13,12,06,15.80
2016,08,13,12,07,15.80
2016,08,13,12,08,15.80
2016,08,13,12,09,15.80
2016,08,13,12,10,15.80
2016,08,13,12,11,15.80
2016,08,13,12,12,15.90
2016,08,13,12,13,16.00
2016,08,13,12,14,16.20
2016,08,13,12,15,16.30
2016,08,13,12,16,16.30
2016,08,13,12,17,16.20
2016,08,13,12,18,16.20
2016,08,13,12,19,16.10
2016,08,13,12,20,16.10
2016,08,13,12,21,16.00
2016,08,13,12,22,15.90
2016,08,13,12,23,15.90
2016,08,13,12,24,15.90
2016,08,13,12,25,15.90
2016,08,13,12,26,15.90
2016,08,13,12,27,15.90
2016,08,13,12,28,15.80
2016,08,13,12,29,15.80
2016,08,13,12,30,15.80
2016,08,13,12,31,15.80
2016,08,13,12,32,15.80
2016,08,13,12,33,15.80
2016,08,13,12,34,15.80
2016,08,13,12,35,15.90
2016,08,13,12,36,15.90
2016,08,13,12,37,15.90
2016,08,13,12,38,15.90
2016,08,13,12,39,15.90
2016,08,13,12,40,15.90
2016,08,13,12,41,15.90
2016,08,13,12,42,15.90
2016,08,13,12,43,15.90
2016,08,13,12,44,16.00
2016,08,13,12,45,16.00
2016,08,13,12,46,16.10
2016,08,13,12,47,16.20
2016,08,13,12,48,16.20
2016,08,13,12,49,16.20
2016,08,13,12,50,16.20
2016,08,13,12,51,16.20
2016,08,13,12,52,16.20
2016,08,13,12,53,16.20
2016,08,13,12,54,16.20
2016,08,13,12,55,16.20
2016,08,13,12,56,16.20
2016,08,13,12,57,16.20
2016,08,13,12,58,16.30
2016,08,13,12,59,16.30
2016,08,13,13,00,16.30
2016,08,13,13,01,16.30
2016,08,13,13,02,16.20
2016,08,13,13,03,16.20
2016,08,13,13,04,16.20
2016,08,13,13,05,16.20
2016,08,13,13,06,16.20
2016,08,13,13,07,16.20
2016,08,13,13,08,16.20
2016,08,13,13,09,16.30
2016,08,13,13,10,16.30
2016,08,13,13,11,16.30
2016,08,13,13,12,16.30
2016,08,13,13,13,16.30
2016,08,13,13,14,16.40
2016,08,13,13,15,16.40
2016,08,13,13,16,16.40
2016,08,13,13,17,16.50
2016,08,13,13,18,16.50
2016,08,13,13,19,16.50
2016,08,13,13,20,16.60
2016,08,13,13,21,16.60
2016,08,13,13,22,16.70
2016,08,13,13,23,16.70
2016,08,13,13,24,16.70
2016,08,13,13,25,16.70
2016,08,13,13,26,16.80
2016,08,13,13,27,16.80
2016,08,13,13,28,16.80
2016,08,13,13,29,16.90
2016,08,13,13,30,16.90
2016,08,13,13,31,16.90
2016,08,13,13,32,16.90
2016,08,13,13,33,17.00
2016,08,13,13,34,17.00
2016,08,13,13,35,17.10
2016,08,13,13,36,17.10
2016,08,13,13,37,17.20
2016,08,13,13,38,17.20
2016,08,13,13,39,17.30
2016,08,13,13,40,17.40
2016,08,13,13,41,17.50
2016,08,13,13,42,17.50
2016,08,13,13,43,17.60
2016,08,13,13,44,17.60
2016,08,13,13,45,17.60
2016,08,13,13,46,17.70
2016,08,13,13,47,17.70
2016,08,13,13,48,17.70
2016,08,13,13,49,17.80
2016,08,13,13,50,17.80
2016,08,13,13,51,17.80
2016,08,13,13,52,17.90
2016,08,13,13,53,17.90
2016,08,13,13,54,17.90
2016,08,13,13,55,17.90
2016,08,13,13,56,18.00
2016,08,13,13,57,18.00
2016,08,13,13,58,18.10
2016,08,13,13,59,18.10
2016,08,13,14,00,18.10
2016,08,13,14,01,18.10
2016,08,13,14,02,18.20
2016,08,13,14,03,18.20
2016,08,13,14,04,18.20
2016,08,13,14,05,18.30
2016,08,13,14,06,18.30
2016,08,13,14,07,18.30
2016,08,13,14,08,18.30
2016,08,13,14,09,18.30
2016,08,13,14,10,18.30
2016,08,13,14,11,18.30
2016,08,13,14,12,18.30
2016,08,13,14,13,18.20
2016,08,13,14,14,18.20
2016,08,13,14,15,18.20
2016,08,13,14,16,18.10
2016,08,13,14,17,18.00
2016,08,13,14,18,17.90
2016,08,13,14,19,17.80
2016,08,13,14,20,17.70
2016,08,13,14,21,17.60
2016,08,13,14,22,17.60
2016,08,13,14,23,17.60
2016,08,13,14,24,17.70
2016,08,13,14,25,17.80
2016,08,13,14,26,17.90
2016,08,13,14,27,17.90
2016,08,13,14,28,18.00
2016,08,13,14,29,18.00
2016,08,13,14,30,18.00
2016,08,13,14,31,18.10
2016,08,13,14,32,18.10
2016,08,13,14,33,18.10
2016,08,13,14,34,18.20
2016,08,13,14,35,18.30
2016,08,13,14,36,18.30
2016,08,13,14,37,18.40
2016,08,13,14,38,18.50
2016,08,13,14,39,18.50
2016,08,13,14,40,18.40
2016,08,13,14,41,18.20
2016,08,13,14,42,17.90
2016,08,13,14,43,17.50
2016,08,13,14,44,17.20
2016,08,13,14,45,17.00
2016,08,13,14,46,16.80
2016,08,13,14,47,16.70
2016,08,13,14,48,16.60
2016,08,13,14,49,16.60
2016,08,13,14,50,16.60
2016,08,13,14,51,16.60
2016,08,13,14,52,16.60
2016,08,13,14,53,16.60
2016,08,13,14,54,16.60
2016,08,13,14,55,16.70
2016,08,13,14,56,16.70
2016,08,13,14,57,16.70
2016,08,13,14,58,16.80
2016,08,13,14,59,16.90
2016,08,13,15,00,17.00
2016,08,13,15,01,17.10
2016,08,13,15,02,17.10
2016,08,13,15,03,17.10
2016,08,13,15,04,17.10
2016,08,13,15,05,17.20
2016,08,13,15,06,17.20
2016,08,13,15,07,17.20
2016,08,13,15,08,17.20
2016,08,13,15,09,17.20
2016,08,13,15,10,17.20
2016,08,13,15,11,17.20
2016,08,13,15,12,17.20
2016,08,13,15,13,17.10
2016,08,13,15,14,17.10
2016,08,13,15,15,17.00
2016,08,13,15,16,16.90
2016,08,13,15,17,16.90
2016,08,13,15,18,16.80
2016,08,13,15,19,16.70
2016,08,13,15,20,16.70
2016,08,13,15,21,16.70
2016,08,13,15,22,16.70
2016,08,13,15,23,16.70
2016,08,13,15,24,16.60
2016,08,13,15,25,16.40
2016,08,13,15,26,16.30
2016,08,13,15,27,16.20
2016,08,13,15,28,16.10
2016,08,13,15,29,16.00
2016,08,13,15,30,15.90
2016,08,13,15,31,15.80
2016,08,13,15,32,15.80
2016,08,13,15,33,15.70
2016,08,13,15,34,15.70
2016,08,13,15,35,15.60
2016,08,13,15,36,15.60
2016,08,13,15,37,15.60
2016,08,13,15,38,15.70
2016,08,13,15,39,15.80
2016,08,13,15,40,15.90
2016,08,13,15,41,15.80
2016,08,13,15,42,16.10
2016,08,13,15,43,16.50
2016,08,13,15,44,16.80
2016,08,13,15,45,16.90
2016,08,13,15,46,17.20
2016,08,13,15,47,17.50
2016,08,13,15,48,17.80
2016,08,13,15,49,17.80
2016,08,13,15,50,17.70
2016,08,13,15,51,18.00
2016,08,13,15,52,18.40
2016,08,13,15,53,18.70
2016,08,13,15,54,18.80
2016,08,13,15,55,18.20
2016,08,13,15,56,17.60
2016,08,13,15,57,17.20
2016,08,13,15,58,17.00
2016,08,13,15,59,17.00
2016,08,13,16,00,17.10
2016,08,13,16,01,17.10
2016,08,13,16,02,17.20
2016,08,13,16,03,17.20
2016,08,13,16,04,17.30
2016,08,13,16,05,17.10
2016,08,13,16,06,17.00
2016,08,13,16,07,17.00
2016,08,13,16,08,17.20
2016,08,13,16,09,17.30
2016,08,13,16,10,17.30
2016,08,13,16,11,17.40
2016,08,13,16,12,17.20
2016,08,13,16,13,17.00
2016,08,13,16,14,16.90
2016,08,13,16,15,16.90
2016,08,13,16,16,16.90
2016,08,13,16,17,17.10
2016,08,13,16,18,17.20
2016,08,13,16,19,17.20
2016,08,13,16,20,17.20
2016,08,13,16,21,17.30
2016,08,13,16,22,17.30
2016,08,13,16,23,17.30
2016,08,13,16,24,17.40
2016,08,13,16,25,17.50
2016,08,13,16,26,17.70
2016,08,13,16,27,17.80
2016,08,13,16,28,17.80
2016,08,13,16,29,17.70
2016,08,13,16,30,17.40
2016,08,13,16,31,17.00
2016,08,13,16,32,16.60
2016,08,13,16,33,16.50
2016,08,13,16,34,16.50
2016,08,13,16,35,16.30
2016,08,13,16,36,16.20
2016,08,13,16,37,16.10
2016,08,13,16,38,16.10
2016,08,13,16,39,16.10
2016,08,13,16,40,16.00
2016,08,13,16,41,16.00
2016,08,13,16,42,15.90
2016,08,13,16,43,15.80
2016,08,13,16,44,15.90
2016,08,13,16,45,15.90
2016,08,13,16,46,15.80
2016,08,13,16,47,15.60
2016,08,13,16,48,15.40
2016,08,13,16,49,15.30
2016,08,13,16,50,15.30
2016,08,13,16,51,15.30
2016,08,13,16,52,15.20
2016,08,13,16,53,15.20
2016,08,13,16,54,15.10
2016,08,13,16,55,15.10
2016,08,13,16,56,15.00
2016,08,13,16,57,15.00
2016,08,13,16,58,14.90
2016,08,13,16,59,14.90
2016,08,13,17,00,15.00
2016,08,13,17,01,15.00
2016,08,13,17,02,15.10
2016,08,13,17,03,15.20
2016,08,13,17,04,15.40
2016,08,13,17,05,15.40
2016,08,13,17,06,15.50
2016,08,13,17,07,15.50
2016,08,13,17,08,15.40
2016,08,13,17,09,15.30
2016,08,13,17,10,15.20
2016,08,13,17,11,15.10
2016,08,13,17,12,15.00
2016,08,13,17,13,14.90
2016,08,13,17,14,14.90
2016,08,13,17,15,14.80
2016,08,13,17,16,14.80
2016,08,13,17,17,14.70
2016,08,13,17,18,14.70
2016,08,13,17,19,14.70
2016,08,13,17,20,14.60
2016,08,13,17,21,14.60
2016,08,13,17,22,14.60
2016,08,13,17,23,14.50
2016,08,13,17,24,14.50
2016,08,13,17,25,14.40
2016,08,13,17,26,14.40
2016,08,13,17,27,14.30
2016,08,13,17,28,14.30
2016,08,13,17,29,14.30
2016,08,13,17,30,14.30
2016,08,13,17,31,14.20
2016,08,13,17,32,14.20
2016,08,13,17,33,14.20
2016,08,13,17,34,14.20
2016,08,13,17,35,14.20
2016,08,13,17,36,14.20
2016,08,13,17,37,14.10
2016,08,13,17,38,14.10
2016,08,13,17,39,14.10
2016,08,13,17,40,14.10
2016,08,13,17,41,14.10
2016,08,13,17,42,14.10
2016,08,13,17,43,14.10
2016,08,13,17,44,14.10
2016,08,13,17,45,14.00
2016,08,13,17,46,14.00
2016,08,13,17,47,13.90
2016,08,13,17,48,13.90
2016,08,13,17,49,13.90
2016,08,13,17,50,13.90
2016,08,13,17,51,13.90
2016,08,13,17,52,13.90
2016,08,13,17,53,13.90
2016,08,13,17,54,13.90
2016,08,13,17,55,13.90
2016,08,13,17,56,13.90
2016,08,13,17,57,13.90
2016,08,13,17,58,13.90
2016,08,13,17,59,13.90
2016,08,13,18,00,13.90
2016,08,13,18,01,13.90
2016,08,13,18,02,14.00
2016,08,13,18,03,14.00
2016,08,13,18,04,14.00
2016,08,13,18,05,14.00
2016,08,13,18,06,14.00
2016,08,13,18,07,14.00
2016,08,13,18,08,14.00
2016,08,13,18,09,14.00
2016,08,13,18,10,14.00
2016,08,13,18,11,14.00
2016,08,13,18,12,14.00
2016,08,13,18,13,14.00
2016,08,13,18,14,14.10
2016,08,13,18,15,14.00
2016,08,13,18,16,14.10
2016,08,13,18,17,14.10
2016,08,13,18,18,14.10